Weather History for KAOO - February, 2014

Change the Weather History Date:

Wednesday, February 19, 2014

  Actual Average Record
Temperature  
Mean Temperature 37 °F 30 °F  
Max Temperature 48 °F 38 °F 61 °F (1994)
Min Temperature 25 °F 21 °F -4 °F (1993)
Degree Days  
Heating Degree Days 28 35  
Month to date heating degree days 793 695  
Since 1 July heating degree days 4404 4248  
Cooling Degree Days 0 0  
Month to date cooling degree days 0 0  
Year to date cooling degree days 0 0  
Moisture  
Dew Point 28 °F    
Average Humidity 65    
Maximum Humidity 92    
Minimum Humidity 37    
Precipitation  
Precipitation 0.25 in - 1.43 in (1972)
Month to date precipitation 2.40  
Year to date precipitation 3.24  
Sea Level Pressure  
Sea Level Pressure 29.86 in    
Wind  
Wind Speed 10 mph (West)    
Max Wind Speed 33 mph    
Max Gust Speed 41 mph    
Visibility 8 miles    
Events Rain    
T = Trace of Precipitation, MM = Missing Value Source: NWS Daily Summary

Daily Weather History Graph

Daily Weather History Graph

Search for Another Location

Airport or City:

Trip Planner

Search our weather history database for the weather conditions in past years. The results will help you decide how hot, cold, wet, or windy it might be!

Date:

Astronomy

Feb. 19, 2014 Rise Set
Actual Time 7:01 AM EST 5:53 PM EST
Civil Twilight 6:33 AM EST 6:21 PM EST
Nautical Twilight 6:01 AM EST 6:52 PM EST
Astronomical Twilight 5:30 AM EST 7:24 PM EST
Moon 10:45 PM EST (2/19) 9:05 AM EST (2/19)
Length of Visible Light 11h 47m
Length of Day
10h 52m
Waning Gibbous, 80% of the Moon is Illuminated
Feb 19
Waning Gibbous
Feb 22
Last Quarter
Mar 1
New
Mar 8
First Quarter
Mar 16
Full

Hourly Weather History & Observations

Time (EST) Temp. Windchill Dew Point Humidity Pressure Visibility Wind Dir Wind Speed Gust Speed Precip Events Conditions
12:53 AM 37.0 °F - 17.1 °F 44% 29.98 in 10.0 mi Calm Calm - N/A   Clear
1:53 AM 32.0 °F - 16.0 °F 52% 29.96 in 10.0 mi Calm Calm - N/A   Clear
2:53 AM 39.0 °F 35.7 °F 15.1 °F 38% 29.93 in 10.0 mi South 4.6 mph - N/A   Clear
3:53 AM 27.0 °F 23.0 °F 16.0 °F 63% 29.88 in 10.0 mi NNE 3.5 mph - N/A   Clear
4:53 AM 27.0 °F 21.6 °F 17.1 °F 66% 29.83 in 10.0 mi North 4.6 mph - N/A   Clear
5:53 AM 27.0 °F - 21.9 °F 81% 29.82 in 10.0 mi Calm Calm - N/A   Overcast
6:53 AM 30.9 °F - 27.0 °F 85% 29.84 in 3.0 mi Calm Calm - 0.08 in Rain Light Freezing Rain
7:40 AM 32.0 °F 27.5 °F 28.9 °F 88% 29.78 in 2.0 mi NE 4.6 mph - 0.08 in Rain Light Freezing Rain
7:53 AM 32.0 °F - 30.0 °F 92% 29.82 in 2.0 mi Calm Calm - 0.12 in Rain Light Freezing Rain
8:05 AM 33.1 °F - 30.9 °F 92% 29.79 in 3.0 mi Calm Calm - 0.01 in   Overcast
8:53 AM - - - N/A% 29.76 in - North - - 0.04 in   Unknown
9:53 AM - - - N/A% 29.73 in - North - - N/A   Unknown
10:30 AM 35.1 °F 32.2 °F 33.1 °F 92% 29.74 in 4.0 mi West 3.5 mph - N/A   Mostly Cloudy
10:53 AM 37.0 °F - 34.0 °F 89% 29.77 in 6.0 mi Calm Calm - N/A   Overcast
11:53 AM 37.9 °F - 34.0 °F 86% 29.75 in 9.0 mi Calm Calm - N/A   Overcast
12:29 PM 39.9 °F 37.8 °F 36.0 °F 86% 29.69 in 10.0 mi SSW 3.5 mph - N/A   Overcast
12:53 PM 39.0 °F 33.4 °F 36.0 °F 89% 29.72 in 10.0 mi SSW 8.1 mph - N/A   Overcast
1:25 PM 42.1 °F 35.7 °F 37.9 °F 85% 29.68 in 10.0 mi SSW 11.5 mph - 0.00 in Rain Light Rain
1:53 PM 43.0 °F 36.8 °F 39.0 °F 86% 29.71 in 9.0 mi SW 11.5 mph - 0.00 in   Mostly Cloudy
2:53 PM 48.0 °F - 36.0 °F 63% 29.72 in 10.0 mi West 28.8 mph 36.8 mph 0.01 in   Mostly Cloudy
3:53 PM 46.9 °F - 34.0 °F 61% 29.78 in 10.0 mi West 20.7 mph 40.3 mph 0.00 in   Mostly Cloudy
4:53 PM 45.0 °F 36.6 °F 30.9 °F 58% 29.85 in 10.0 mi West 21.9 mph 29.9 mph N/A   Overcast
5:53 PM 43.0 °F 35.7 °F 30.0 °F 60% 29.95 in 10.0 mi WNW 15.0 mph 26.5 mph N/A   Overcast
6:53 PM 42.1 °F 32.8 °F 30.0 °F 62% 30.02 in 10.0 mi WNW 21.9 mph 27.6 mph N/A   Scattered Clouds
7:53 PM 39.9 °F 29.7 °F 28.0 °F 63% 30.08 in 10.0 mi WNW 23.0 mph 28.8 mph N/A   Partly Cloudy
8:53 PM 39.0 °F 31.4 °F 28.0 °F 65% 30.07 in 10.0 mi WNW 12.7 mph - N/A   Clear
9:53 PM 37.9 °F 28.9 °F 28.0 °F 68% 30.09 in 10.0 mi West 16.1 mph 23.0 mph N/A   Clear
10:53 PM 37.0 °F 30.4 °F 26.1 °F 65% 30.12 in 10.0 mi WNW 9.2 mph - N/A   Clear
11:53 PM 36.0 °F 32.1 °F 26.1 °F 67% 30.13 in 10.0 mi West 4.6 mph - N/A   Clear